"Pseudo-MPEC" for CC95VQ2

Created 2024 Nov 14 8:31:04 UT using Find_Orb

Click here for an explanation of pseudo-MPECs

 
 Astrometry: 
     CC95VQ2*1C2024 11 12.36582807 23 54.215+40 20 52.48   ~BC9l 20.75GVNEOCPG96
     CC95VQ2 1C2024 11 12.37103507 23 52.998+40 22 17.98   ~BC9l 20.96GVNEOCPG96
     CC95VQ2 1C2024 11 12.37622607 23 51.713+40 23 45.64   ~BC9l 20.83GVNEOCPG96
     CC95VQ2 1C2024 11 12.38141607 23 50.510+40 25 12.07   ~BC9l 21.73GVNEOCPG96
     CC95VQ2 KC2024 11 12.42659507 23 39.490+40 37 33.60   ~BCB2       VNEOCPI52
     CC95VQ2 KC2024 11 12.43049507 23 38.580+40 38 37.00   ~BCB2 21.18GVNEOCPI52
     CC95VQ2 KC2024 11 12.43442707 23 37.510+40 39 40.60   ~BCB2       VNEOCPI52
     CC95VQ2 KC2024 11 12.49710207 23 21.950+40 56 32.40   ~BCCV 20.44GVNEOCPI52
     CC95VQ2 KC2024 11 12.49814607 23 21.640+40 56 48.80   ~BCCV       VNEOCPI52
     CC95VQ2 KC2024 11 12.49919707 23 21.460+40 57 04.60   ~BCCV       VNEOCPI52
     CC95VQ2 KC2024 11 12.50024307 23 21.110+40 57 21.50   ~BCCV 20.99GVNEOCPI52
     CC95VQ2 pC2024 11 12.88931607 22 23.41 +42 37 27.2    ~BCMH 20.7 GVNEOCPL01
     CC95VQ2 pC2024 11 12.89216907 22 22.82 +42 38 13.2    ~BCMH 20.9 GVNEOCPL01
     CC95VQ2 KC2024 11 12.89526907 22 22.35 +42 39 02.0    ~BCMH 20.7 GVNEOCPL01
     CC95VQ2 KC2024 11 13.43691207 20 35.016+44 54 57.82   ~BDBV 20.78GVNEOCPI52
     CC95VQ2 KC2024 11 13.44529707 20 32.849+44 56 58.88   ~BDBV 21.32GVNEOCPI52
     CC95VQ2 KC2024 11 13.44789407 20 32.132+44 57 37.12   ~BDBV 20.99GVNEOCPI52
     CC95VQ2 KC2024 11 13.45317807 20 30.768+44 58 53.33   ~BDBV 20.69GVNEOCPI52

Station data:
(G96) Mt. Lemmon Survey  (N32.442729 W110.788720)  US/Arizona.  Observer E.
   J. Christensen. 1.5-m reflector + 10K CCD.
(I52) Steward Observatory, Mt. Lemmon Station  (N32.442570 W110.788920)
   US/Arizona.  Observers T. A. Pruyne, B. M. Africano, E. J. Christensen, G.
   A. Farneth, D. C. Fuls, A. R. Gibbs, A. D. Grauer, H. Gröller, J. A.
   Johnson, R. A. Kowalski, S. M. Larson, G. J. Leonard, D. Rankin, R. L.
   Seaman, F. C. Shelly, K. W. Wierzchoś. 1.0-m prime focus + CCD.
(L01) Višnjan Observatory, Tičan  (N45.290897 E13.749300)  Croatia.
   Observers K. Korlević, D. Pujagic, V. Dobos. Measurers D. Pujagic, K.
   Korlević. 1.0-m f/2.9 reflector + CCD.

Orbital elements:  CC95VQ2
   Perihelion 2024 Oct 7.52456 +/- 0.0506 TT = 12:35:21 (JD 2460591.02456)
Epoch 2024 Nov 13.0 TT = JDT 2460627.5   Earth MOID: 0.0194   Ma: 0.0376
M  24.52418938 +/- 0.06             (J2000 ecliptic)             AutoNEOCP
n   0.67234792 +/- 0.0012           Peri.  323.86415 +/- 0.048
a   1.29044649 +/- 0.00154          Node    49.08176 +/- 0.007
e   0.2457434 +/- 0.000922          Incl.   15.40035 +/- 0.048
P   1.466/535.427d         H 25.38  G  0.15   U  8.2
q 0.97332774 +/- 5e-5    Q 1.60756524 +/- 0.0031
From 18 observations 2024 Nov. 12-13 (26.1 hr); mean residual 0".54
Residuals in arcseconds: 
241112 G96  .66+  .29-    241112 I52  .92-  .61-    241112 L01  1.1-  .16+    
241112 G96  .67+  1.2-    241112 I52  .20+  1.1+    241112 L01  .14+  .04-    
241112 G96  .06-  .38+    241112 I52  .35-  .85+    241113 I52  .26+  .23+    
241112 G96  .24+  .90+    241112 I52  .58+  .10-    241113 I52  .55+  .33-    
241112 I52  .43-  .05+    241112 I52  .43-  .12+    241113 I52  .17+  .31+    
241112 I52  .18+  .16-    241112 L01  .52-  .73-    241113 I52  .40+  .13+    

Ephemerides (geocentric):
Date (UTC) HH   RA             Dec           delta  r     elong  mag " sig PA
---- --------  ------------   ------------  ------ ------ -----  --- --------
2024 11 14 09  07 17 31.350   +48 27 53.80  .06212 1.0249 123.6 21.4 1.88 175
2024 11 14 10  07 17 23.037   +48 36 50.51  .06227 1.0250 123.6 21.4 1.99 175
2024 11 14 11  07 17 14.702   +48 45 44.58  .06242 1.0251 123.6 21.4 2.11 174
2024 11 14 12  07 17 06.344   +48 54 36.01  .06257 1.0253 123.7 21.4 2.22 174
2024 11 14 13  07 16 57.963   +49 03 24.83  .06272 1.0254 123.7 21.4 2.34 174
2024 11 14 14  07 16 49.560   +49 12 11.03  .06287 1.0255 123.7 21.4 2.45 174
2024 11 14 15  07 16 41.134   +49 20 54.63  .06303 1.0256 123.8 21.4 2.57 174
2024 11 14 16  07 16 32.685   +49 29 35.64  .06318 1.0257 123.8 21.4 2.70 173
2024 11 14 17  07 16 24.214   +49 38 14.07  .06333 1.0258 123.8 21.4 2.82 173
2024 11 14 18  07 16 15.720   +49 46 49.93  .06348 1.0259 123.8 21.4 2.95 173
2024 11 14 19  07 16 07.203   +49 55 23.25  .06364 1.0260 123.9 21.4 3.07 173
2024 11 14 20  07 15 58.663   +50 03 54.01  .06379 1.0261 123.9 21.4 3.20 173
2024 11 14 21  07 15 50.100   +50 12 22.25  .06395 1.0262 123.9 21.4 3.34 173
2024 11 14 22  07 15 41.514   +50 20 47.96  .06410 1.0263 124.0 21.4 3.47 173
2024 11 14 23  07 15 32.904   +50 29 11.16  .06426 1.0264 124.0 21.4 3.60 172
2024 11 15 00  07 15 24.272   +50 37 31.86  .06441 1.0265 124.0 21.4 3.74 172
2024 11 15 01  07 15 15.616   +50 45 50.08  .06457 1.0267 124.0 21.4 3.88 172
2024 11 15 02  07 15 06.937   +50 54 05.82  .06472 1.0268 124.1 21.4 4.02 172
2024 11 15 03  07 14 58.234   +51 02 19.10  .06488 1.0269 124.1 21.4 4.16 172
2024 11 15 04  07 14 49.508   +51 10 29.92  .06504 1.0270 124.1 21.4 4.31 172
2024 11 15 05  07 14 40.758   +51 18 38.30  .06519 1.0271 124.1 21.4 4.45 172
2024 11 15 06  07 14 31.985   +51 26 44.25  .06535 1.0272 124.2 21.5 4.60 172
2024 11 15 07  07 14 23.188   +51 34 47.78  .06551 1.0273 124.2 21.5 4.74 172
2024 11 15 08  07 14 14.368   +51 42 48.90  .06567 1.0274 124.2 21.5 4.89 172
2024 11 15 09  07 14 05.523   +51 50 47.63  .06583 1.0275 124.2 21.5 5.04 172
2024 11 15 10  07 13 56.655   +51 58 43.97  .06599 1.0276 124.3 21.5 5.20 171
2024 11 15 11  07 13 47.763   +52 06 37.94  .06615 1.0277 124.3 21.5 5.35 171
2024 11 15 12  07 13 38.847   +52 14 29.55  .06631 1.0278 124.3 21.5 5.50 171
2024 11 15 13  07 13 29.907   +52 22 18.81  .06647 1.0280 124.3 21.5 5.66 171
2024 11 15 14  07 13 20.942   +52 30 05.72  .06663 1.0281 124.4 21.5 5.82 171
2024 11 15 15  07 13 11.954   +52 37 50.31  .06679 1.0282 124.4 21.5 5.98 171
2024 11 15 16  07 13 02.941   +52 45 32.58  .06695 1.0283 124.4 21.5 6.14 171
2024 11 15 17  07 12 53.904   +52 53 12.55  .06711 1.0284 124.4 21.5 6.30 171
2024 11 15 18  07 12 44.843   +53 00 50.22  .06727 1.0285 124.4 21.5 6.46 171
2024 11 15 19  07 12 35.757   +53 08 25.61  .06744 1.0286 124.5 21.5 6.62 171
2024 11 15 20  07 12 26.647   +53 15 58.72  .06760 1.0287 124.5 21.5 6.79 171
2024 11 15 21  07 12 17.512   +53 23 29.58  .06776 1.0288 124.5 21.5 6.95 171
2024 11 15 22  07 12 08.352   +53 30 58.18  .06793 1.0289 124.5 21.5 7.12 171
2024 11 15 23  07 11 59.168   +53 38 24.55  .06809 1.0291 124.5 21.5 7.28 171
2024 11 16 00  07 11 49.959   +53 45 48.69  .06825 1.0292 124.6 21.5 7.45 171
2024 11 16 01  07 11 40.726   +53 53 10.61  .06842 1.0293 124.6 21.5 7.62 171
2024 11 16 02  07 11 31.467   +54 00 30.33  .06858 1.0294 124.6 21.5 7.79 170
2024 11 16 03  07 11 22.184   +54 07 47.86  .06875 1.0295 124.6 21.6 7.96 170
2024 11 16 04  07 11 12.875   +54 15 03.20  .06891 1.0296 124.6 21.6 8.13 170
2024 11 16 05  07 11 03.542   +54 22 16.37  .06908 1.0297 124.7 21.6 8.31 170
2024 11 16 06  07 10 54.183   +54 29 27.38  .06925 1.0298 124.7 21.6 8.48 170
2024 11 16 07  07 10 44.800   +54 36 36.23  .06941 1.0299 124.7 21.6 8.65 170
2024 11 16 08  07 10 35.391   +54 43 42.95  .06958 1.0300 124.7 21.6 8.83 170